Tracking 27112 objects as of 27-Mar-2023
HD Live streaming from Space Station
objects crossing your sky now

SL-16 DEB

Track SL-16 DEB now!
10-day predictions


NORAD ID: 22547
Int'l Code: 1992-093HH
Perigee: 619.4 km
Apogee: 678.7 km
Inclination: 71.4 °
Period: 97.6 minutes
Semi major axis: 7020 km
RCS: 0.0052 m2 (small)
Launch date: December 25, 1992
Source: Commonwealth of Independent States (former USSR) (CIS)
Launch site: TYURATAM MISSILE AND SPACE COMPLEX (TTMTR)

Note: This is SATELLITE DEBRIS
Your satellite tracking list
Your tracking list is empty




NASA's NSSDC Master Catalog

Two Line Element Set (TLE):
1 22547U 92093HH  23085.82650107  .00059282  00000-0  84103-2 0  9994
2 22547  71.4253 234.1247 0042236 151.2564 209.0934 14.76019865572680
Source of the keplerian elements: AFSPC